Theta_e
332 333 332 331 330 329 330 331 332 332 333 333 333 333 333 334 335 336 337 338 339 342 346 349 354 356 357 355 356 356 358 359 361 363 364 364 364 364 364 364 364 364 363 363
333 332 331 331 332 330 330 330 331 332 333 333 333 332 332 332 332 333 333 333 334 336 342 347 351 356 356 358 356 356 359 359 361 363 365 366 366 365 366 365 365 365 365 364
334 332 331 332 331 332 332 331 331 333 333 333 333 333 333 333 333 333 333 333 333 334 336 344 345 348 352 358 358 355 358 361 361 363 366 367 367 367 366 367 366 366 365 365
328 331 335 331 330 330 330 331 331 332 333 333 333 332 332 332 332 333 333 333 333 333 335 337 337 342 349 351 359 359 359 360 361 362 366 367 368 368 368 367 367 367 367 366
326 330 330 329 328 330 330 331 330 331 331 330 330 330 332 331 331 332 333 333 333 333 333 335 335 338 342 350 354 360 362 361 361 364 365 367 368 368 368 368 367 367 367 367
324 327 332 328 327 325 329 331 330 330 330 330 332 335 335 341 341 337 333 333 334 332 333 334 335 336 336 341 349 360 360 362 362 364 365 367 368 368 368 368 367 366 366 366
319 323 325 325 327 328 330 344 335 332 333 336 338 342 345 342 343 345 345 344 340 339 338 337 337 337 345 344 347 352 357 360 363 364 366 366 366 368 369 369 366 367 366 366
318 320 323 321 321 327 331 333 333 336 338 341 341 341 341 341 344 346 348 346 342 342 346 347 340 341 352 355 351 354 356 359 362 364 364 364 366 368 370 369 368 367 367 367
316 317 319 319 320 320 320 323 324 326 327 329 332 338 340 342 346 349 349 346 338 341 350 342 343 345 352 354 357 357 360 363 363 365 366 364 367 369 368 368 366 367 366 368
314 315 316 316 317 317 318 319 320 321 322 322 324 332 339 343 348 349 349 350 352 353 352 348 353 356 354 354 357 358 363 364 365 366 367 365 363 365 365 364 365 365 364 365
315 314 316 316 316 316 317 318 318 318 320 322 323 327 337 345 351 349 352 355 353 356 357 358 360 362 362 363 360 360 360 360 361 361 363 365 365 360 362 362 361 362 363 361
316 316 316 317 317 317 317 316 316 318 319 325 326 331 340 343 349 353 351 351 353 353 353 353 352 353 353 353 360 363 362 362 361 359 360 362 362 364 362 361 360 360 360 359
316 315 315 315 316 317 317 317 317 319 322 324 328 332 341 342 347 347 350 349 352 353 352 352 351 348 348 352 353 354 355 356 354 352 352 353 357 358 359 359 360 359 359 359
312 313 316 315 315 316 317 317 317 318 319 322 327 335 339 340 341 346 347 347 348 350 349 347 347 349 350 352 353 350 346 346 349 350 351 352 354 355 356 356 357 358 348 350
309 310 312 314 315 316 316 317 317 320 321 325 329 338 339 341 343 344 344 345 345 345 346 346 346 346 346 344 343 344 346 345 344 344 344 344 345 345 345 345 342 338 339 339
316 310 310 312 314 315 315 316 321 324 322 328 335 338 338 339 340 341 341 339 341 344 342 343 344 344 344 345 344 343 340 339 342 342 340 340 341 342 342 340 340 338 337 335
314 313 312 313 314 315 317 319 320 325 329 331 334 335 336 336 335 336 335 335 335 336 338 340 341 343 345 345 343 343 342 342 339 340 339 340 340 340 338 339 338 337 334 329
316 319 318 319 320 320 320 322 326 328 330 329 330 329 331 330 332 334 332 331 330 332 332 333 337 339 340 341 341 341 341 341 340 341 338 337 338 337 338 338 337 335 335 331
316 316 316 317 318 318 318 320 319 318 318 319 320 322 321 321 323 324 325 327 327 328 329 330 331 334 335 334 340 339 339 339 340 341 340 338 338 337 335 334 333 332 332 333
315 316 315 315 314 315 316 315 314 315 316 314 312 312 312 317 319 319 320 321 322 322 322 324 328 328 330 330 332 335 338 339 338 337 336 337 337 336 332 329 330 331 332 333
314 315 314 314 313 312 312 314 314 314 312 312 314 314 312 310 309 311 314 315 315 319 319 318 319 323 323 325 327 328 330 333 333 333 335 333 331 331 330 329 327 326 326 327
314 313 315 313 311 311 311 311 310 310 312 311 311 311 310 312 310 309 308 309 310 314 315 316 316 318 319 321 321 322 324 325 327 328 328 328 325 323 320 318 318 319 320 321
312 312 311 312 313 312 310 309 308 307 308 308 310 310 309 309 308 308 309 307 307 307 309 310 312 314 315 316 316 315 316 318 320 322 323 322 322 321 318 315 314 314 314 317
310 310 310 310 309 310 312 309 307 306 306 304 304 304 305 305 304 304 304 303 304 306 305 306 308 310 312 311 312 312 312 313 314 315 317 318 319 319 317 314 312 311 311 312
304 308 308 308 309 309 308 307 307 306 305 304 304 303 303 303 303 302 301 302 301 303 303 302 305 307 308 310 310 309 310 311 312 313 314 315 316 316 316 315 314 313 311 309
303 304 306 306 306 306 306 306 306 305 305 305 304 303 302 301 301 301 301 301 301 301 301 301 300 304 305 306 307 307 307 307 309 309 309 310 311 311 312 312 312 312 311 311
304 303 305 305 304 304 303 303 303 302 301 302 302 301 300 300 299 299 299 299 299 299 300 300 299 299 301 302 303 304 305 306 305 306 307 307 308 307 304 302 302 302 303 302
Wind_Speed
26 17 8 28 31 31 30 24 24 15 19 16 13 11 12 13 9 8 8 7 8 11 12 11 16 22 29 32 32 37 37 39 40 40 38 37 38 39 39 38 39 38 37 38
24 23 6 13 20 33 30 28 25 23 16 18 16 11 7 5 5 5 7 8 7 8 12 15 17 20 24 29 31 31 33 38 36 37 36 37 36 37 38 39 39 39 40 40
15 20 11 17 20 19 23 27 24 22 19 14 5 3 5 6 8 10 10 11 10 11 11 14 20 21 23 25 30 32 33 31 34 36 37 36 35 35 39 40 37 40 39 38
10 17 23 13 16 16 15 15 13 11 9 7 7 8 12 12 12 12 12 11 11 11 12 16 18 21 23 23 27 30 30 33 35 37 36 34 35 37 36 34 37 37 37 38
10 13 5 16 15 20 22 21 17 16 15 13 13 14 16 16 17 17 16 15 14 16 18 15 12 14 16 23 24 27 30 34 37 34 34 35 38 38 36 35 35 37 37 37
9 14 18 7 13 3 3 11 15 23 18 13 10 10 10 10 13 13 15 14 13 17 16 16 18 21 19 21 23 27 33 32 32 32 34 36 36 35 34 35 36 33 36 39
14 10 11 6 5 6 13 5 0 4 3 6 8 8 15 16 16 16 16 15 19 12 13 15 16 17 17 21 22 30 25 27 30 33 34 35 33 33 34 34 32 34 35 37
15 18 21 12 6 6 8 8 13 14 13 11 9 12 15 17 18 17 17 17 18 16 13 12 16 15 15 17 23 20 23 25 27 29 31 31 31 29 29 30 31 30 32 33
15 12 8 9 11 14 4 5 9 10 12 13 16 13 15 16 17 17 15 13 15 16 13 11 10 13 13 15 14 15 20 21 22 24 27 26 27 27 27 28 30 30 30 31
18 18 18 17 17 14 13 11 15 14 14 16 17 18 17 17 16 13 11 10 9 9 8 5 5 9 13 13 14 15 16 17 19 20 22 23 25 26 28 27 28 29 26 28
21 23 21 19 21 20 21 22 20 19 19 20 19 18 17 16 16 9 8 8 7 4 1 3 3 4 3 1 7 12 14 15 16 17 19 19 21 23 25 27 27 26 27 28
17 18 18 20 19 21 21 23 24 22 20 19 19 18 12 14 13 12 6 4 2 1 4 5 5 5 4 3 3 10 11 12 14 14 16 16 16 18 22 21 19 29 32 26
22 25 26 22 21 21 20 20 20 20 21 20 20 16 9 11 10 9 7 5 3 3 6 6 7 5 3 2 3 2 2 4 3 4 6 7 13 14 14 19 31 32 32 30
30 26 26 22 18 18 22 17 15 21 23 24 22 15 9 5 7 7 5 3 6 7 9 8 8 10 8 8 8 7 6 4 2 2 1 3 6 7 10 11 12 4 10 17
29 29 27 22 17 18 17 17 21 22 21 20 18 10 4 8 8 8 9 10 16 16 13 13 14 12 12 12 12 9 6 7 6 7 7 6 6 6 6 6 6 8 13 16
1 19 20 20 21 20 18 19 21 22 21 15 11 9 12 15 13 10 13 13 12 9 14 15 14 11 9 7 4 12 13 7 5 7 6 5 4 3 3 2 2 5 8 9
11 10 12 14 17 19 21 18 16 22 14 12 16 14 14 15 17 15 18 17 19 19 17 15 15 11 11 8 9 7 6 7 5 9 9 7 6 6 6 7 7 7 7 7
20 11 8 7 10 13 11 8 2 10 10 3 11 13 11 16 11 11 17 17 21 21 20 18 16 14 13 10 9 10 10 6 5 7 9 9 10 10 11 11 10 8 9 4
22 21 17 20 16 17 13 18 21 27 24 29 22 16 26 24 22 20 20 20 23 20 20 19 19 20 19 22 15 16 13 11 10 8 7 7 11 12 11 9 7 7 7 7
21 23 26 24 37 28 19 27 33 28 31 39 29 29 19 23 22 22 23 26 26 23 22 23 22 23 20 22 21 16 18 19 16 13 13 14 13 14 13 11 10 11 11 11
23 20 21 22 19 23 25 28 34 26 29 37 25 18 25 32 36 28 23 12 28 25 29 33 32 25 22 20 20 19 17 19 16 16 17 20 19 18 17 17 16 15 15 16
18 18 18 21 18 19 23 27 27 25 23 24 23 24 22 20 25 26 28 24 24 29 30 31 31 34 27 24 23 22 20 17 16 17 17 17 17 19 19 21 20 21 21 21
22 21 21 22 21 20 25 27 27 27 27 27 23 22 21 19 23 23 14 24 28 30 28 30 25 31 30 28 25 23 23 21 18 17 12 16 19 19 19 21 22 20 25 25
20 21 21 18 19 21 14 19 23 23 23 25 26 26 23 21 24 23 23 27 26 24 30 31 29 25 23 25 25 25 24 22 22 25 22 20 18 19 17 18 22 27 28 28
21 16 19 19 16 14 17 18 19 20 20 21 23 24 23 24 23 21 21 21 26 24 23 25 25 22 21 20 19 20 18 22 21 21 21 21 22 20 17 18 19 18 22 29
17 17 14 15 16 17 16 16 17 18 16 17 20 20 20 20 20 20 19 20 20 19 17 18 21 20 18 18 17 17 18 18 16 21 23 20 19 18 19 19 19 21 22 20
13 17 15 14 15 15 16 16 15 16 19 17 16 17 17 17 17 17 17 17 17 17 15 15 16 16 14 14 14 14 13 15 18 17 17 16 16 16 17 18 20 18 17 19
Wind_Direction
252 253 229 202 213 216 215 219 222 208 208 166 140 136 134 142 131 127 146 171 198 232 234 223 196 197 199 210 210 210 207 209 213 214 216 214 212 211 210 211 213 214 214 216
252 249 217 258 240 214 214 220 222 234 232 197 159 178 190 207 200 234 277 278 263 224 224 225 208 203 203 205 213 209 211 211 210 212 212 215 214 211 211 211 212 213 214 214
232 238 226 238 234 238 225 210 223 220 231 252 222 220 244 247 237 238 258 264 240 248 224 210 211 213 208 206 207 213 212 212 211 210 210 211 213 212 213 213 211 214 216 216
244 226 227 232 203 235 239 251 245 255 266 266 272 269 263 261 272 274 269 269 258 253 218 219 219 202 204 202 203 212 215 213 212 212 209 206 209 215 216 215 215 216 218 219
245 233 199 214 233 208 214 228 230 232 234 241 251 251 252 264 269 271 270 274 265 249 238 248 255 217 212 197 200 206 216 215 215 211 210 206 208 212 214 213 216 217 218 220
256 245 226 214 92 75 51 231 225 221 230 233 240 234 239 337 337 300 263 267 275 254 258 253 231 237 231 223 211 207 214 215 211 211 210 211 212 210 211 214 217 218 221 222
236 252 244 284 49 244 192 78 72 261 169 248 263 332 334 327 322 318 306 301 306 304 294 270 270 243 229 229 220 218 213 213 208 210 210 213 213 211 211 214 218 218 223 224
229 238 238 281 345 234 48 33 8 1 5 355 337 325 309 316 314 311 300 291 279 285 272 266 257 234 234 216 222 206 209 206 209 209 210 212 214 214 213 213 216 224 222 229
227 229 241 289 311 287 45 338 319 327 331 326 314 307 316 315 309 299 295 287 273 272 292 269 248 243 236 243 219 215 199 200 206 205 208 217 206 211 213 216 223 222 227 227
270 267 270 283 289 283 294 302 299 301 305 300 297 307 316 315 305 310 306 292 298 280 270 255 263 249 238 230 214 209 195 204 203 206 206 210 220 213 220 222 222 231 232 234
267 258 265 269 272 274 280 281 285 292 290 297 293 297 314 314 315 312 319 329 313 308 96 104 52 41 47 168 193 196 197 201 203 209 207 212 220 226 220 230 234 234 234 247
258 250 248 254 262 261 255 264 275 279 284 294 292 290 310 301 307 316 302 292 272 115 115 110 113 98 59 32 329 203 193 196 199 208 198 207 222 223 249 252 245 246 256 269
277 280 277 266 264 267 257 257 262 281 288 285 286 283 305 288 282 294 320 264 208 146 131 112 87 76 78 79 100 90 18 47 122 224 243 232 210 224 244 232 236 247 255 266
259 263 266 263 264 259 268 266 276 266 267 270 278 293 295 278 266 244 241 195 161 128 95 95 99 90 86 81 88 88 82 75 115 65 5 323 324 310 305 290 298 306 331 314
232 229 244 249 254 272 261 273 261 261 257 254 254 269 242 236 222 209 183 91 75 68 69 86 87 70 79 82 78 65 66 68 76 79 57 80 71 49 16 355 341 322 314 313
329 197 213 227 236 246 245 258 258 270 247 253 258 218 212 220 195 134 121 114 103 93 85 72 59 77 84 71 78 117 94 66 58 85 80 53 57 78 102 42 343 342 329 327
106 157 187 207 223 234 235 246 256 261 254 259 248 213 222 192 116 113 104 97 92 84 71 64 68 67 63 59 62 65 68 98 75 74 51 44 24 30 26 16 7 5 19 1
42 54 177 219 214 225 240 272 42 246 257 80 114 98 116 87 88 76 81 91 80 71 65 60 51 63 62 35 61 65 71 75 68 57 62 50 46 34 22 25 19 353 327 337
33 46 51 73 74 73 56 69 65 58 56 66 43 66 70 65 66 58 56 57 61 53 41 54 53 52 43 36 67 68 75 75 64 54 62 62 53 49 41 32 31 29 6 343
31 36 41 49 46 37 43 56 67 55 55 65 59 54 51 52 60 60 59 58 54 50 44 37 59 51 41 37 45 63 59 44 51 65 56 61 51 75 63 57 56 48 38 32
35 43 34 48 51 44 42 46 56 49 49 55 58 69 65 63 57 43 41 46 25 46 47 42 43 50 42 46 56 55 49 64 61 53 49 57 48 45 41 48 42 42 33 24
30 34 42 54 52 48 55 66 66 65 69 75 66 66 61 67 74 67 57 49 31 44 47 48 46 56 48 52 46 52 59 59 53 57 58 65 62 54 44 43 38 37 38 38
28 26 41 36 52 57 54 57 61 60 57 53 64 71 65 64 65 63 54 39 47 45 43 41 48 54 56 55 53 51 45 42 44 62 75 85 80 67 58 53 49 43 44 47
19 33 25 38 53 49 60 66 63 58 64 66 60 56 51 55 52 49 56 41 41 52 44 34 32 42 56 56 51 50 49 47 35 26 47 55 58 61 64 62 62 56 52 48
8 18 35 23 26 53 52 50 59 57 54 51 52 51 49 47 48 45 40 40 38 37 41 29 30 41 42 43 54 53 50 55 53 50 45 36 40 53 56 62 64 68 63 55
20 1 29 40 38 32 36 45 51 42 46 51 47 42 41 42 33 34 32 30 36 32 30 34 31 29 34 36 41 41 44 37 49 59 60 51 48 43 37 38 44 44 43 55
31 24 18 28 32 45 38 43 49 47 30 22 39 32 30 28 31 31 33 33 37 33 30 29 37 29 25 27 34 38 39 46 44 32 40 42 49 56 57 58 55 51 52 49